Location: Eboldshausen
(51.7766°N, 10.0050°E)
Time: 08:04:10
(UTC+00:00)

Resurs 1-4 Rocket - Pass Details

Date: 15 June 2024
Orbit: 799 x 812 km, 98.7° (Epoch: 22 July)

Event Time Altitude Azimuth Distance (km) Brightness Sun altitude
Rises 00:50:30 0° 20° (NNE) 3,326 7.5 -12.4°
Reaches altitude 10° 00:52:58 10° 27° (NNE) 2,392 6.1 -12.2°
Maximum altitude 00:57:59 42° 98° (E) 1,136 3.0 -11.9°
Drops below altitude 10° 01:02:58 10° 169° (S) 2,383 4.1 -11.6°
Enters shadow 01:03:03 10° 169° (S) 2,416 4.1 -11.6°
